This is the latest recevied weather packets stored in our database for station/object EA5FOG-11. If no packets are shown the sender has not sent any weather packets the latest 10 day(s).
| Time | Temp. | Humidity | Pressure | Rain* | Wind** | Luminosity | Snow |
|---|---|---|---|---|---|---|---|
| 1777279373 | 28.89° C | 40% | 959.8 hPa | - | - | - | - |
| 1777278473 | 27.22° C | 43% | 959.9 hPa | - | - | - | - |
| 1777277572 | 27.78° C | 44% | 960 hPa | - | - | - | - |
| 1777276671 | 24.44° C | 47% | 960.1 hPa | - | - | - | - |
| 1777275770 | 28.89° C | 46% | 960.2 hPa | - | - | - | - |
| 1777274869 | 27.22° C | 48% | 960.4 hPa | - | - | - | - |
| 1777273987 | 21.11° C | 54% | 960.4 hPa | - | - | - | - |
| 1777273087 | 21.11° C | 54% | 960.5 hPa | - | - | - | - |
| 1777272186 | 20° C | 57% | 960.3 hPa | - | - | - | - |
| 1777271285 | 17.22° C | 59% | 960.2 hPa | - | - | - | - |
| 1777270384 | 15° C | 61% | 960 hPa | - | - | - | - |
| 1777269483 | 13.33° C | 62% | 959.8 hPa | - | - | - | - |
| 1777268583 | 11.11° C | 63% | 959.7 hPa | - | - | - | - |
| 1777267682 | 10° C | 63% | 959.4 hPa | - | - | - | - |
| 1777266781 | 10° C | 62% | 959.4 hPa | - | - | - | - |
| 1777265880 | 10° C | 62% | 959.3 hPa | - | - | - | - |
| 1777264979 | 10.56° C | 62% | 959.2 hPa | - | - | - | - |
| 1777264079 | 10° C | 62% | 959.1 hPa | - | - | - | - |
| 1777263178 | 10° C | 62% | 959.2 hPa | - | - | - | - |
| 1777262277 | 10° C | 62% | 959.3 hPa | - | - | - | - |
| 1777261376 | 10° C | 62% | 959.3 hPa | - | - | - | - |
| 1777260476 | 10.56° C | 62% | 959.3 hPa | - | - | - | - |
| 1777259575 | 10.56° C | 62% | 959.4 hPa | - | - | - | - |
| 1777258674 | 11.11° C | 62% | 959.5 hPa | - | - | - | - |
| 1777257773 | 10.56° C | 62% | 959.5 hPa | - | - | - | - |
* Rain since midnight (hover to see other rain measurements)
** Current wind speed in m/s (hover to see current wind gust speed)